STARLINK-6052, 56793

Orbit data source: Space-Track

STARLINK-6052, 56793 is a payload satellite owned by SpaceX/Seattle (US) in LEO that was launched on Wed, 31 May 2023 UTC via an FALCON 9 launch vehicle from the Air Force Western Test Range (AFWTR). Payload-class satellites include a variety of spacecraft equipped with specific instruments for various scientific and technological missions. These include communications satellites like Starlink; space stations such as the ISS; scientific satellites like the Hubble; Earth observation satellites from companies like Planet Labs, Umbra, and HawkEye 360; GPS; miniature CubeSats for education and research; and military/defense satellites.

Loading next visibility...
Identifier
56793, 2023-078AC
Orbit
LEO
Country
Flag of USUS
Related business
Manufacturer
SpaceX/Seattle
Mission
Operational Commercial Communications
Bus & Motor
STARLINK, Unknown motor
Mass
305 kg wet, ~290 kg dry
Launch date (UTC)
2023-05-31 (3 years ago)
Launch vehicle
FALCON 9
Launch site
Air Force Western Test Range (AFWTR)
Object type
Payload
Rocket body
Debris
Shape & HBR
Box + 1 Pan, 10.1 m
Radar Cross Section
11.087 m², Large (>1 m²)

Expand to show TLE details & history
Last TLE update: 2 days ago

TLE from 2 days ago
0 STARLINK-6052
1 56793U 23078AC  26171.18901317  .00001202  00000-0  10850-3 0  9999
2 56793  69.9999  86.0202 0002645 257.8718 102.2145 14.98330726168032
Epoch: 2026-06-20T04:32Z
TLE epoch observation values (Epoch: 2026-06-20T04:32:10.737Z)
Latitude
-0.00003°
Longitude
109.56824°
Altitude
574.867 km
Speed
7.573 km/s
True Right ascension
05h 44m 04s
True Declination
0° 00' 00"
Sunlit
Object was in daylight at epoch
Visualization orbit readout
Latitude
Unknown
Longitude
Unknown
Altitude
Unknown
Speed
Unknown
Apparent Right ascension
Unknown
Apparent Declination
Unknown
Sunlit
N/A
Visualization observer readout
Local Sidereal Time
21:46:18
Azimuth
Unknown
Elevation
Unknown
Doppler factor
Unknown
Orbital elements
Apogee altitude
571.84 km
Perigee altitude
568.164 km
Semi-major axis
6,948.139 km
Eccentricity
0.00026
Inclination
69.9999°
RAAN
86.0202°
Arg. of periapsis
257.8718°
True anomaly
102.24412°
Mean anomaly
102.2145°
Eccentric anomaly
102.22931°
Mean motion
3.74749 °/min
Orbital period
96.06 mins
BSTAR
0.0001085
Loading maneuver chart data...
Computing Atmospheric mass density...

Documentation

Showing up to 5 results
|